Iridium 30 - Orbit

View from above orbital plane
View from above orbital plane
View from above satellite
View from above satellite

Ground track
Ground track

The orbit data is extracted from the following two-line orbital elements,

1 24949U 97051F   13169.44745781  .00000030  00000-0  35184-5 0  4264
2 24949 086.3975 177.3175 0002462 106.5496 253.5970 14.34215223825175
Epoch (UTC): 18 June 2013 10:44:20
Eccentricity: 0.0002462
inclination: 86.3975°
perigee height: 776 km
apogee height: 779 km
right ascension of ascending node: 177.3175°
argument of perigee: 106.5496°
revolutions per day: 14.34215223
mean anomaly at epoch: 253.5970°
orbit number at epoch: 82517

The dashed part of the orbit path shows where the satellite is in the earth's shadow,  

Developed and maintained by Chris Peat, Heavens-Above GmbH. Please read the updated FAQ before sending e-mail. Imprint. DLR